User: anonymous   Login
Location: Unspecified
(0.0000°N, 0.0000°E)
Time: 03:20:56
(UTC+00:00)
Language:

STARLINK-34787 - Orbit

View from above orbital plane
View from above orbital plane
View from above satellite
View from above satellite

Ground track
Ground track

The orbit is defined by the following mean orbital elements,

1 65204U          26145.43419958 +.00000000 +00000-0 +69082-3 0 00009
2 65204  53.1591 155.3179 0001220  85.5442 274.5700 15.34397250    01
Epoch (UTC): 25 May 2026 10:25:14
Eccentricity: 0.0001220
inclination: 53.1591°
perigee height: 462 km
apogee height: 464 km
right ascension of ascending node: 155.3179°
argument of perigee: 85.5442°
revolutions per day: 15.34397250
mean anomaly at epoch: 274.5700°

The dashed part of the orbit path shows where the satellite is in the earth's shadow,  

DLR